Date String (YYYY-MM-DD hh:mm:ss) UTC,Instrument flags,Ambient pressure (hPa),Sample flow (lpm),Bypass flow (lpm),Sample temperature (°C),Ambient temperature (°C),ASC tube jacket temperature (°C),LED temperature (°C),Box temperature (°C),Sample RH (%),Span deviation,Mass concentration (μg/m³),Mass concentration (μg/m³),Mass concentration (μg/m³)
DateTimeUTC,F1_M11,P_M11,Q1_M11,Q2_M11,T1_M11,T2_M11,T3_M11,T4_M11,T5_M11,U1_M11,ZSPAN_M11,X0_M11,X2_M11,X1_M11
2022-01-16 22:00:00,,0827.3,5.02,0.00,27.6,26.8,00.0,36.5,29.4,08.0,0000.0,0011.41,0006.62,0006.13
2022-01-16 22:01:00,,0827.8,5.00,0.00,27.6,26.8,00.0,36.5,29.4,08.0,0000.0,0011.74,0006.64,0006.15
2022-01-16 22:02:00,,0827.4,4.98,0.00,27.6,26.8,00.0,36.5,29.4,08.1,0000.0,0011.84,0006.66,0006.16
2022-01-16 22:03:00,,0827.2,5.00,0.00,27.6,26.8,00.0,36.5,29.4,08.1,0000.0,0012.20,0006.65,0006.14
2022-01-16 22:04:00,,0827.3,5.02,0.00,27.6,26.8,00.0,36.5,29.4,08.3,0000.0,0012.40,0006.65,0006.13
2022-01-16 22:05:00,,0827.3,4.99,0.00,27.6,26.8,00.0,36.5,29.4,08.3,0000.0,0012.47,0006.64,0006.12
2022-01-16 22:06:00,,0827.3,4.99,0.00,27.6,26.8,00.0,36.5,29.4,08.3,0000.0,0012.48,0006.62,0006.08
2022-01-16 22:07:00,,0827.3,5.01,0.00,27.6,26.8,00.0,36.5,29.4,08.3,0000.0,0012.37,0006.59,0006.05
2022-01-16 22:08:00,,0827.4,4.98,0.00,27.6,26.8,00.0,36.5,29.4,07.9,0000.0,0012.54,0006.49,0005.95
2022-01-16 22:09:00,,0827.4,5.00,0.00,27.5,26.7,00.0,36.5,29.3,08.1,0000.0,0012.20,0006.33,0005.81
2022-01-16 22:10:00,,0827.4,5.01,0.00,27.5,26.7,00.0,36.5,29.3,08.0,0000.0,0011.25,0006.16,0005.65
2022-01-16 22:11:00,,0827.4,4.99,0.00,27.5,26.7,00.0,36.5,29.3,07.8,0000.0,0010.75,0005.94,0005.48
2022-01-16 22:12:00,,0827.4,5.01,0.00,27.5,26.7,00.0,36.5,29.3,07.7,0000.0,0010.41,0005.70,0005.26
2022-01-16 22:13:00,,0827.4,5.01,0.00,27.5,26.7,00.0,36.5,29.3,07.7,0000.0,0010.13,0005.46,0005.05
2022-01-16 22:14:00,,0827.5,4.99,0.00,27.5,26.7,00.0,36.5,29.3,07.7,0000.0,0009.59,0005.22,0004.83
2022-01-16 22:15:00,,0827.5,5.01,0.00,27.5,26.7,00.0,36.4,29.2,07.6,0000.0,0009.10,0005.02,0004.63
2022-01-16 22:16:00,,0827.5,4.99,0.00,27.4,26.6,00.0,36.4,29.2,07.7,0000.0,0008.59,0004.76,0004.41
2022-01-16 22:17:00,,0827.5,5.00,0.00,27.4,26.6,00.0,36.4,29.2,07.8,0000.0,0008.57,0004.55,0004.23
2022-01-16 22:18:00,,0827.5,5.00,0.00,27.4,26.6,00.0,36.4,29.2,07.8,0000.0,0008.35,0004.37,0004.05
2022-01-16 22:19:00,,0827.6,5.00,0.00,27.4,26.6,00.0,36.4,29.2,07.9,0000.0,0007.90,0004.26,0003.94
2022-01-16 22:20:00,,0827.6,4.99,0.00,27.4,26.6,00.0,36.4,29.1,08.0,0000.0,0007.75,0004.16,0003.86
2022-01-16 22:21:00,,0827.6,5.02,0.00,27.4,26.5,00.0,36.4,29.1,08.0,0000.0,0008.29,0004.10,0003.81
2022-01-16 22:22:00,,0827.6,4.98,0.00,27.3,26.5,00.0,36.4,29.1,08.1,0000.0,0008.58,0004.05,0003.76
2022-01-16 22:23:00,,0827.6,5.01,0.00,27.3,26.5,00.0,36.4,29.1,08.1,0000.0,0008.24,0004.01,0003.73
2022-01-16 22:24:00,,0827.7,4.99,0.00,27.3,26.5,00.0,36.3,29.0,08.0,0000.0,0008.23,0004.00,0003.73
2022-01-16 22:25:00,,0827.7,5.01,0.00,27.3,26.5,00.0,36.3,29.0,08.1,0000.0,0008.63,0003.99,0003.73
2022-01-16 22:26:00,,0827.7,5.00,0.00,27.3,26.5,00.0,36.3,29.0,08.1,0000.0,0008.64,0003.98,0003.73
2022-01-16 22:27:00,,0827.7,4.99,0.00,27.3,26.5,00.0,36.3,29.0,08.1,0000.0,0008.75,0003.98,0003.74
2022-01-16 22:28:00,,0827.7,5.01,0.00,27.3,26.5,00.0,36.3,29.0,08.1,0000.0,0008.62,0003.98,0003.75
2022-01-16 22:29:00,,0827.6,5.00,0.00,27.2,26.5,00.0,36.3,29.0,08.1,0000.0,0009.37,0003.98,0003.75
2022-01-16 22:30:00,,0827.7,5.00,0.00,27.2,26.5,00.0,36.3,29.0,08.0,0000.0,0009.40,0003.95,0003.74
2022-01-16 22:31:00,,0827.7,4.99,0.00,27.2,26.5,00.0,36.3,29.0,08.0,0000.0,0009.39,0003.94,0003.73
2022-01-16 22:32:00,,0827.7,5.00,0.00,27.2,26.5,00.0,36.2,29.0,08.1,0000.0,0008.92,0003.94,0003.72
2022-01-16 22:33:00,,0827.8,4.99,0.00,27.2,26.5,00.0,36.2,29.0,08.1,0000.0,0008.52,0003.93,0003.71
2022-01-16 22:34:00,,0827.7,5.01,0.00,27.2,26.4,00.0,36.2,28.9,08.2,0000.0,0008.34,0003.94,0003.69
2022-01-16 22:35:00,,0827.8,4.98,0.00,27.2,26.4,00.0,36.2,28.9,08.3,0000.0,0008.74,0003.95,0003.69
2022-01-16 22:36:00,,0827.7,4.99,0.00,27.2,26.4,00.0,36.2,28.9,08.3,0000.0,0008.38,0003.93,0003.67
2022-01-16 22:37:00,,0827.7,5.02,0.00,27.2,26.4,00.0,36.2,28.9,08.2,0000.0,0008.28,0003.92,0003.66
2022-01-16 22:38:00,,0827.7,4.98,0.00,27.2,26.4,00.0,36.2,28.9,08.1,0000.0,0008.15,0003.89,0003.64
2022-01-16 22:39:00,,0827.7,5.00,0.00,27.2,26.4,00.0,36.2,28.9,08.2,0000.0,0008.02,0003.87,0003.62
2022-01-16 22:40:00,,0827.7,5.00,0.00,27.2,26.4,00.0,36.2,28.9,08.2,0000.0,0007.47,0003.89,0003.60
2022-01-16 22:41:00,,0827.7,5.01,0.00,27.1,26.4,00.0,36.2,28.9,08.1,0000.0,0007.33,0003.85,0003.58
2022-01-16 22:42:00,,0827.7,5.00,0.00,27.1,26.4,00.0,36.2,28.8,08.3,0000.0,0007.35,0003.83,0003.56
2022-01-16 22:43:00,,0827.7,5.02,0.00,27.1,26.4,00.0,36.2,28.8,08.3,0000.0,0007.31,0003.79,0003.53
2022-01-16 22:44:00,,0827.7,4.99,0.00,27.1,26.3,00.0,36.1,28.8,08.4,0000.0,0007.30,0003.76,0003.51
2022-01-16 22:45:00,,0827.7,5.01,0.00,27.0,26.3,00.0,36.1,28.8,08.4,0000.0,0007.19,0003.75,0003.49
2022-01-16 22:46:00,,0827.8,5.01,0.00,27.0,26.3,00.0,36.1,28.7,08.4,0000.0,0006.24,0003.72,0003.45
2022-01-16 22:47:00,,0827.7,4.99,0.00,27.0,26.2,00.0,36.1,28.7,08.5,0000.0,0006.10,0003.68,0003.41
2022-01-16 22:48:00,,0827.7,4.99,0.00,27.0,26.2,00.0,36.1,28.7,08.5,0000.0,0005.93,0003.65,0003.38
2022-01-16 22:49:00,,0827.7,5.02,0.00,27.0,26.1,00.0,36.1,28.7,08.5,0000.0,0005.74,0003.63,0003.36
2022-01-16 22:50:00,,0827.7,4.99,0.00,26.9,26.1,00.0,36.1,28.7,08.6,0000.0,0007.27,0003.61,0003.33
2022-01-16 22:51:00,,0827.7,5.00,0.00,26.9,26.2,00.0,36.0,28.7,08.6,0000.0,0007.17,0003.54,0003.30
2022-01-16 22:52:00,,0827.7,5.01,0.00,26.9,26.2,00.0,36.0,28.7,08.5,0000.0,0006.98,0003.51,0003.27
2022-01-16 22:53:00,,0827.7,4.99,0.00,26.9,26.2,00.0,36.0,28.6,08.6,0000.0,0007.09,0003.48,0003.24
2022-01-16 22:54:00,,0827.7,5.01,0.00,26.9,26.1,00.0,36.0,28.6,08.6,0000.0,0007.13,0003.43,0003.21
2022-01-16 22:55:00,,0827.7,5.00,0.00,26.9,26.1,00.0,36.0,28.6,08.7,0000.0,0008.14,0003.40,0003.18
2022-01-16 22:56:00,,0827.8,4.99,0.00,26.9,26.1,00.0,36.0,28.6,08.6,0000.0,0008.64,0003.37,0003.15
2022-01-16 22:57:00,,0827.8,5.03,0.00,26.9,26.1,00.0,36.0,28.6,08.6,0000.0,0008.61,0003.34,0003.14
2022-01-16 22:58:00,,0827.8,4.98,0.00,26.9,26.1,00.0,35.9,28.6,08.6,0000.0,0008.61,0003.32,0003.12
2022-01-16 22:59:00,,0827.8,5.01,0.00,26.9,26.1,00.0,35.9,28.6,08.7,0000.0,0008.62,0003.30,0003.09
